EST,Max TemperatureF,Mean TemperatureF,Min TemperatureF,Max Dew PointF,MeanDew PointF,Min DewpointF,Max Humidity, Mean Humidity, Min Humidity, Max Sea Level PressureIn, Mean Sea Level PressureIn, Min Sea Level PressureIn, Max VisibilityMiles, Mean VisibilityMiles, Min VisibilityMiles, Max Wind SpeedMPH, Mean Wind SpeedMPH, Max Gust SpeedMPH,PrecipitationIn, CloudCover, Events, WindDirDegrees
2013-11-1,69,60,50,57,48,41,100,69,45,29.76,29.69,29.50,10,9,2,33,15,50,0.42,3,Rain,221
2013-11-2,53,48,42,46,41,36,100,75,54,30.00,29.82,29.71,10,10,4,15,5,21,0.01,3,Rain,251
2013-11-3,48,42,35,39,34,27,100,74,43,30.41,30.22,29.99,10,10,5,13,3,17,0.04,4,Rain,332
2013-11-4,55,42,30,32,29,25,93,58,33,30.47,30.43,30.39,10,10,7,7,1,,0.00,0,,73
2013-11-5,60,48,35,36,32,23,87,57,29,30.50,30.43,30.36,10,10,2,7,0,,0.00,0,,127
2013-11-6,71,56,42,48,45,34,87,60,38,30.36,30.18,29.99,10,10,10,18,4,28,0.00,1,,192
2013-11-7,64,50,35,54,40,27,100,80,52,30.18,30.07,29.94,10,8,1,17,10,31,0.46,7,Rain,267
2013-11-8,44,37,30,32,27,23,93,69,49,30.31,30.25,30.15,10,10,9,14,6,22,0.00,3,,259
2013-11-9,57,44,30,28,22,16,93,50,20,30.29,30.17,30.06,10,10,10,17,4,24,0.01,0,,217
2013-11-10,48,40,32,34,28,21,80,55,34,30.32,30.19,30.08,10,10,10,26,10,36,0.00,1,,254
2013-11-11,51,40,28,32,26,19,93,60,28,30.32,30.20,30.06,10,10,9,15,1,18,0.00,2,,228
2013-11-12,44,35,26,41,29,21,100,90,57,30.49,30.31,30.08,10,6,0,17,6,24,10.36,6,Rain-Snow,346
2013-11-13,30,24,19,23,21,19,100,83,69,30.55,30.49,30.41,10,10,10,10,6,,0.00,2,,222
2013-11-14,48,36,23,23,19,14,80,55,27,30.41,30.32,30.22,10,10,10,14,5,18,0.00,0,,196
2013-11-15,55,45,35,43,25,14,100,48,26,30.27,30.22,30.17,10,10,5,17,2,22,0.03,2,Rain,219
2013-11-16,62,52,42,50,46,43,100,81,59,30.25,30.17,30.09,10,10,4,10,2,,0.00,2,,178
2013-11-17,69,60,50,59,50,45,88,69,52,30.09,29.92,29.68,10,9,2,24,7,62,0.33,4,Rain,184
2013-11-18,55,47,37,46,34,28,87,59,41,30.08,29.92,29.82,10,10,10,22,12,32,0.00,0,,254
2013-11-19,37,34,32,28,25,23,75,70,60,30.35,30.24,30.08,10,10,10,12,4,21,0.00,6,,321
2013-11-20,53,42,30,23,14,5,75,42,14,30.38,30.34,30.29,10,10,10,14,2,,0.00,0,,144
2013-11-21,57,44,32,43,34,18,80,63,48,30.40,30.34,30.27,10,10,8,8,1,,0.00,2,,141
2013-11-22,59,50,41,55,50,41,100,92,67,30.26,30.19,30.12,10,5,0,16,4,22,0.44,7,Fog-Rain,272
2013-11-23,41,32,21,41,27,9,100,79,54,30.32,30.23,30.16,10,9,2,24,9,33,0.11,6,Rain-Snow,304
2013-11-24,23,18,14,12,7,3,86,58,43,30.50,30.45,30.33,10,10,4,14,8,25,0.01,2,Snow,316
2013-11-25,41,26,12,32,10,1,100,55,21,30.49,30.35,30.24,10,10,4,16,1,24,0.01,1,Snow,241
2013-11-26,41,36,32,41,35,32,100,100,100,30.24,29.97,29.70,10,2,0,9,2,,1.95,7,Fog-Rain-Snow,334
2013-11-27,33,28,23,34,26,16,100,94,74,30.16,29.86,29.72,10,4,0,14,6,22,3.56,8,Rain-Snow,296
2013-11-28,28,24,21,23,20,18,93,81,69,30.42,30.32,30.17,10,10,2,14,7,21,0.12,6,Snow,232
2013-11-29,35,30,24,23,22,21,93,73,56,30.59,30.54,30.42,10,10,10,7,1,,0.00,2,,196
2013-11-30,46,34,23,28,24,19,93,69,46,30.53,30.39,30.23,10,10,10,10,1,17,0.00,0,,203